ONEWEB-0249, 48967

Orbit data source: Space-Track

ONEWEB-0249, 48967 is a payload satellite owned by One Web (NAA) (UK) in LEO that was launched on Thu, 01 Jul 2021 UTC via a SOYUZ-2-1B launch vehicle from the Vostochny Cosmodrome (VOSTO). Payload-class satellites include a variety of spacecraft equipped with specific instruments for various scientific and technological missions. These include communications satellites like Starlink; space stations such as the ISS; scientific satellites like the Hubble; Earth observation satellites from companies like Planet Labs, Umbra, and HawkEye 360; GPS; miniature CubeSats for education and research; and military/defense satellites.

Loading next visibility...
Identifier
48967, 2021-060A
Orbit
LEO
Country
Flag of UKUK
Related business
Manufacturer
One Web
Mission
Operational Commercial Communications
Bus & Motor
ARROW, Unknown motor
Mass
148 kg wet, ~140 kg dry
Launch date (UTC)
2021-07-01 (4 years ago)
Launch vehicle
SOYUZ-2-1B
Launch site
Vostochny Cosmodrome (VOSTO)
Object type
Payload
Rocket body
Debris
Shape & HBR
Trap Box + 2 Pan, 6.7 m
Radar Cross Section
3.464 m², Large (>1 m²)

Expand to show TLE details & history
Last TLE update: 19 hours ago

TLE from 19 hours ago
0 ONEWEB-0249
1 48967U 21060A   25348.83546757 -.00000011  00000-0 -62536-4 0  9990
2 48967  87.9043 265.4865 0001779  70.3873 289.7450 13.16595243215355
Epoch: 2025-12-14T20:03Z
TLE epoch observation values (Epoch: 2025-12-14T20:03:04.398Z)
Latitude
0.00002°
Longitude
-119.02451°
Altitude
1,200.195 km
Speed
7.254 km/s
True Right ascension
17h 41m 56s
True Declination
0° 00' 00"
Sunlit
Object was in daylight at epoch
Visualization orbit readout
Latitude
Unknown
Longitude
Unknown
Altitude
Unknown
Speed
Unknown
Apparent Right ascension
Unknown
Apparent Declination
Unknown
Sunlit
N/A
Visualization observer readout
Local Sidereal Time
13:22:45
Azimuth
Unknown
Elevation
Unknown
Doppler factor
Unknown
Orbital elements
Apogee altitude
1,196.211 km
Perigee altitude
1,193.516 km
Semi-major axis
7,573 km
Eccentricity
0.00018
Inclination
87.9043°
RAAN
265.4865°
Arg. of periapsis
70.3873°
True anomaly
289.72581°
Mean anomaly
289.745°
Eccentric anomaly
289.73541°
Mean motion
3.29338 °/min
Orbital period
109.31 mins
BSTAR
-0.000062536
Loading maneuver chart data...
Computing Atmospheric mass density...
Loading historical data...
Loading historical data...
Loading historical data...
Loading historical data...
Loading historical data...
Loading historical data...
Loading historical data...

Documentation

Showing up to 5 results
|